Temperature
20 20 19 19 18 18 18 18 18 18 18 18 18 18 18 17 17 17 17 16 16 16 16 16 16 15 15 15 15 15 15 16 16 16 16 17 17 17 16 16 16 16 16
20 19 19 19 18 18 18 18 18 18 18 18 18 18 18 17 17 17 17 16 16 16 16 16 15 15 15 15 15 15 15 15 16 16 16 17 16 16 16 16 16 16 16
20 19 18 18 18 18 18 18 18 18 18 18 18 17 17 17 17 17 17 16 16 16 16 15 15 15 15 15 15 15 15 15 15 16 16 16 16 16 16 16 16 16 16
21 19 19 18 18 18 18 18 18 18 18 18 18 18 17 17 17 17 17 16 16 15 15 15 15 15 15 15 14 14 15 15 15 15 16 15 16 16 16 16 16 16 16
21 20 19 19 18 18 18 18 18 18 18 18 18 17 17 17 17 17 17 16 16 15 15 15 15 15 14 14 14 14 14 14 15 15 15 15 16 16 16 16 16 16 16
22 21 20 19 19 19 18 18 18 18 18 18 18 18 17 17 17 17 17 16 16 16 15 15 15 15 14 14 14 14 14 14 14 15 15 15 15 16 16 16 16 16 16
23 22 21 20 19 19 18 18 18 18 18 18 18 18 17 17 17 17 17 16 16 16 16 15 15 15 14 14 14 14 14 14 14 14 14 14 15 15 15 15 15 16 16
23 22 21 20 20 19 19 19 18 18 18 18 18 18 18 17 17 17 17 17 17 16 16 16 15 15 14 14 14 14 14 14 14 14 14 14 14 14 14 14 15 15 15
24 23 22 21 20 20 19 19 19 18 18 18 18 18 18 17 17 17 17 17 17 16 16 16 16 15 15 14 14 14 14 14 14 14 14 14 14 14 14 14 14 14 14
24 23 22 22 21 20 20 19 19 19 18 18 18 18 18 18 17 17 17 17 17 16 16 16 16 15 15 14 14 14 14 14 14 14 14 14 14 14 13 13 14 14 14
25 24 23 22 22 21 20 19 19 19 18 18 18 18 18 18 18 17 17 17 17 17 16 16 16 15 15 15 15 14 14 14 14 13 13 14 14 14 13 13 13 13 14
26 25 24 23 22 21 20 20 19 19 19 18 18 18 18 18 18 17 17 17 17 17 17 16 16 15 15 15 15 15 14 14 14 14 14 14 14 14 14 14 14 14 13
26 25 24 23 22 22 21 20 19 19 19 18 18 18 18 18 18 18 17 17 17 17 17 17 16 16 15 15 15 15 15 14 14 14 14 14 14 14 14 14 14 14 13
25 25 24 23 23 22 21 21 20 19 19 18 18 18 18 18 18 18 17 17 17 17 17 17 17 16 16 15 15 15 15 15 14 14 14 14 14 14 14 14 14 14 13
25 24 24 23 23 22 22 21 20 20 20 19 19 18 18 18 18 18 17 17 17 17 17 17 16 16 16 16 15 15 15 15 15 15 14 14 14 14 14 14 14 13 13
24 24 24 23 23 22 22 21 21 20 20 20 19 19 18 18 18 17 17 17 17 17 17 17 16 16 16 16 15 15 15 15 15 15 15 15 14 14 14 14 14 14 13
23 23 23 23 22 22 22 21 21 21 20 20 19 19 19 18 18 17 17 17 17 17 16 16 16 16 16 16 15 15 15 15 15 15 15 15 14 14 14 14 14 14 14
21 21 21 21 21 21 21 21 21 20 20 20 19 19 18 18 18 17 17 17 17 17 17 16 16 16 16 16 16 15 15 15 15 15 15 15 15 14 14 13 13 13 13
20 20 20 20 20 20 21 21 20 20 19 19 18 18 18 18 17 17 17 16 16 16 16 16 16 16 16 15 15 15 15 15 15 15 15 15 14 14 14 13 13 13 13
19 19 19 19 19 19 20 20 19 19 19 18 18 18 17 17 17 17 16 16 16 15 15 15 15 15 15 15 15 15 14 14 14 14 14 14 14 14 14 13 13 13 13
17 17 18 18 17 18 18 18 18 18 18 17 17 17 17 16 16 16 15 15 15 15 15 15 15 15 15 15 15 14 14 14 14 13 13 13 14 14 13 13 13 13 13
16 16 16 16 16 17 17 17 16 16 16 16 16 16 16 15 15 15 15 15 15 14 14 14 14 14 14 14 14 14 14 14 13 13 13 13 13 13 13 13 13 13 12
15 15 15 15 15 15 15 15 15 15 15 15 15 15 15 15 15 14 14 14 14 14 14 14 14 14 14 13 13 13 13 13 13 12 12 12 12 12 12 12 12 12 12
15 14 14 14 14 14 14 14 14 14 14 14 14 14 14 14 14 14 14 13 13 13 13 13 13 13 13 13 13 13 12 12 12 11 11 11 12 12 12 12 12 12 12
14 14 13 13 13 13 13 13 13 13 13 13 13 13 13 13 13 13 13 13 13 13 13 13 13 13 12 12 12 12 12 11 11 11 11 11 11 10 11 11 11 11 11
13 13 13 12 12 12 12 12 12 12 12 12 12 13 13 13 13 13 13 13 13 13 12 12 12 12 12 12 11 11 11 11 10 10 10 10 9 9 10 10 10 11 11
Wind_Speed
12 10 10 11 12 12 11 11 10 9 8 6 6 6 5 5 5 6 8 7 6 4 1 3 3 1 3 3 3 2 2 1 1 3 2 3 3 3 2 1 2 1 2
12 11 11 11 11 11 11 11 11 11 9 6 5 5 5 5 5 5 7 7 6 6 4 3 2 2 3 3 2 2 3 2 1 2 3 1 2 0 3 2 1 3 3
15 14 13 12 12 13 13 12 11 11 9 9 6 5 5 3 5 6 5 5 6 5 3 3 1 1 2 3 1 1 2 3 2 2 3 2 2 1 2 2 3 2 2
16 15 15 15 15 14 13 12 12 11 10 10 9 9 7 6 6 6 6 6 6 6 6 4 3 0 1 3 2 2 2 2 2 1 1 2 2 1 1 1 3 2 2
15 16 16 15 15 15 14 12 12 11 11 10 9 9 7 6 6 6 8 7 6 5 6 5 4 2 1 2 2 2 2 2 3 3 1 1 1 2 1 1 1 2 2
15 15 16 15 14 15 14 14 13 12 11 11 10 9 8 7 7 7 8 6 6 5 6 6 4 3 2 2 2 1 1 1 3 4 4 2 2 2 2 1 1 1 1
15 15 15 16 15 16 16 15 15 13 12 11 10 9 8 7 7 7 8 7 6 6 7 6 5 3 3 3 2 2 1 1 1 2 3 3 3 3 3 3 3 2 1
14 15 15 15 15 16 15 15 15 14 13 12 10 9 8 6 6 7 6 7 4 6 8 6 6 5 5 5 3 3 4 3 2 3 2 3 2 2 2 2 3 4 3
15 15 15 15 15 15 15 16 15 14 13 13 11 9 9 8 7 8 6 5 4 5 9 7 7 6 5 3 3 3 3 3 3 3 3 3 2 2 2 2 2 3 4
15 15 15 15 14 15 14 14 14 13 12 12 12 12 10 8 7 7 7 5 6 5 8 7 7 7 6 5 5 4 4 4 4 3 3 2 3 1 2 2 2 2 3
14 15 14 14 14 14 14 14 14 13 13 13 12 11 11 10 8 7 7 6 6 6 7 7 7 7 7 7 6 6 5 6 5 5 5 4 4 3 3 3 3 3 3
13 14 15 14 14 14 14 14 14 14 13 12 11 10 10 10 9 9 8 8 7 7 8 8 7 8 8 7 7 8 7 6 6 6 6 5 5 5 4 4 4 4 3
10 12 13 13 13 13 13 14 14 15 14 13 11 10 10 10 10 9 9 9 8 8 8 8 8 8 8 8 8 8 7 7 7 7 7 6 6 6 5 5 5 4 5
7 9 11 11 11 11 11 12 14 14 14 13 13 12 11 10 10 9 9 9 9 9 9 9 9 8 8 8 8 8 8 8 7 7 7 7 7 7 7 7 7 6 6
7 7 8 10 10 10 10 11 11 12 12 13 13 12 11 10 9 9 9 9 9 11 9 9 9 9 9 9 9 8 10 9 8 8 8 9 10 10 8 8 6 6 5
5 6 6 8 10 11 11 10 10 10 10 11 12 11 11 11 10 10 9 9 9 9 9 9 9 10 10 11 12 9 7 7 8 8 8 9 11 13 14 14 12 10 9
4 3 2 4 6 8 10 11 10 10 10 11 11 11 11 12 11 11 10 10 10 10 9 9 9 9 9 10 12 12 8 7 7 7 7 10 12 10 10 13 16 16 17
6 4 3 4 3 4 7 7 8 8 8 9 9 8 9 10 10 10 10 10 8 8 8 8 9 8 10 12 13 12 9 8 8 9 9 9 10 11 9 9 10 11 13
8 7 6 5 5 4 3 4 4 5 5 5 5 5 6 6 6 7 7 7 7 8 8 8 8 9 9 12 13 12 8 8 10 10 11 11 11 14 14 11 11 11 11
10 9 10 11 10 7 6 6 5 4 4 3 3 3 3 3 5 5 5 5 5 6 7 7 7 8 8 11 14 13 8 8 8 8 10 14 14 14 13 11 11 13 12
12 13 13 13 12 11 10 9 8 6 5 5 4 4 3 3 3 3 3 3 4 5 6 5 6 7 9 10 14 15 9 8 8 8 8 8 10 12 13 12 11 14 12
13 13 12 12 11 12 11 11 9 7 6 6 5 4 3 1 2 2 2 2 2 3 4 5 6 5 6 7 10 14 14 10 8 8 7 6 9 9 11 11 14 17 14
12 11 12 12 12 12 11 11 8 6 6 5 5 4 3 2 2 1 1 1 2 3 3 3 4 4 4 3 7 10 11 12 9 8 11 12 13 12 11 15 17 14 11
11 10 11 11 11 11 11 9 8 7 7 6 5 3 3 2 2 2 1 0 1 1 2 2 3 3 3 2 2 1 4 7 8 8 10 13 16 14 15 15 13 12 13
10 10 10 10 10 10 10 9 8 7 6 5 4 3 2 2 1 0 1 1 0 0 2 3 3 3 3 2 2 2 3 4 4 5 7 9 10 10 10 10 10 10 10
9 10 10 10 9 9 8 8 8 7 6 5 4 4 3 2 2 1 1 2 3 3 4 4 4 2 2 3 4 5 7 8 6 5 8 10 11 12 12 11 10 10 10
Wind_Direction
171 164 161 162 156 152 152 148 147 149 151 152 153 148 153 148 135 136 142 147 140 133 41 100 117 42 75 61 44 11 300 223 35 308 272 192 176 135 114 40 20 67 88
168 168 167 167 162 157 155 153 156 157 161 157 154 158 149 155 144 134 145 157 154 159 161 107 141 93 105 81 43 32 334 334 72 330 306 156 112 317 125 126 127 58 48
168 173 171 169 171 167 166 165 165 161 167 158 156 152 136 152 139 143 159 164 164 164 115 130 104 120 157 129 108 1 348 344 356 41 355 357 55 145 119 104 85 68 33
169 174 174 177 177 176 172 165 165 164 168 165 168 164 169 178 166 163 159 166 172 165 160 165 142 214 49 124 188 114 331 318 314 124 99 58 59 349 82 179 130 162 152
172 174 176 177 178 178 175 168 167 168 170 176 173 177 182 178 163 159 151 167 170 178 178 172 161 175 140 105 69 85 349 334 339 344 344 42 184 260 251 145 175 216 165
172 173 172 174 179 176 173 170 170 172 174 180 178 189 190 177 163 161 156 179 170 182 181 178 168 190 176 139 145 164 174 3 1 348 344 349 346 338 352 342 276 239 152
171 171 171 173 174 177 175 172 171 174 176 181 183 188 189 177 167 172 169 190 180 179 177 176 167 189 168 175 173 187 226 201 329 314 321 341 348 358 358 342 330 334 279
168 171 172 172 175 178 175 171 172 175 179 183 183 183 182 184 182 191 187 195 203 174 162 162 170 190 189 198 176 210 199 186 224 261 305 311 321 335 338 331 335 323 309
170 172 173 175 176 177 176 174 174 176 181 182 179 180 185 198 191 178 203 192 183 154 151 165 176 189 194 199 176 228 224 172 217 235 220 247 268 264 308 319 326 323 322
172 172 174 178 179 177 173 173 175 178 181 181 183 187 190 198 193 186 194 195 173 161 153 172 183 188 187 192 207 230 208 205 226 242 243 251 283 275 264 268 275 274 285
172 173 174 177 177 177 174 173 172 178 183 186 191 189 187 194 195 197 189 186 173 166 167 183 189 192 194 194 201 234 218 206 222 236 227 223 251 277 284 264 254 250 251
170 171 173 174 177 179 178 177 178 181 186 187 187 191 186 190 195 197 191 183 181 182 186 193 198 204 203 197 201 222 227 212 219 230 235 230 233 224 247 269 270 263 251
168 167 167 170 176 178 178 179 181 185 187 186 185 187 188 193 197 197 190 185 185 191 194 199 204 211 211 203 206 214 228 228 226 227 230 232 235 236 236 243 258 268 269
158 162 163 168 172 176 177 178 183 185 186 186 187 189 192 194 199 200 195 191 190 196 200 201 207 212 216 213 210 212 219 228 231 231 231 233 234 233 233 243 242 250 262
158 154 164 168 170 173 175 179 183 183 185 184 188 191 190 191 194 196 197 195 194 202 203 206 210 213 218 221 215 215 220 221 229 232 232 236 237 235 234 244 242 250 251
162 164 164 166 172 174 178 181 183 183 179 182 189 190 187 190 197 198 199 199 200 205 200 206 213 216 223 216 207 208 231 227 230 236 237 241 236 234 232 237 241 241 247
87 90 129 150 164 173 175 178 182 181 181 185 191 190 189 193 197 201 200 205 204 206 207 208 214 221 224 216 202 205 222 240 244 246 247 254 254 238 230 230 234 240 242
45 58 81 87 125 168 173 173 180 182 184 187 191 191 192 197 197 200 203 205 205 207 211 214 218 225 226 211 205 206 220 239 247 248 249 250 258 261 252 247 240 234 237
41 43 52 77 76 72 116 134 143 154 162 178 189 187 185 190 194 208 211 205 206 209 212 215 222 228 229 209 204 200 222 238 246 249 250 249 250 250 248 250 252 252 250
52 54 55 54 57 57 72 96 98 103 117 132 137 131 141 173 187 200 211 205 206 215 219 221 223 228 232 212 204 201 224 241 250 253 253 250 249 252 245 243 249 253 254
60 58 58 55 48 48 62 68 65 60 62 72 89 102 124 147 165 180 187 202 211 217 223 233 232 235 235 220 207 203 218 241 253 259 263 262 257 248 248 245 250 254 258
64 62 62 57 48 50 59 63 53 43 49 53 52 63 78 112 153 148 167 184 218 235 236 245 252 249 244 233 214 207 216 235 253 265 274 288 305 290 272 260 257 259 262
72 68 67 61 51 46 50 54 43 39 47 53 48 40 51 54 43 104 177 199 218 237 255 258 263 269 272 251 220 211 225 238 249 269 281 293 294 293 282 263 258 258 258
76 74 72 67 57 50 49 46 39 37 48 50 45 36 32 39 30 12 18 358 291 272 291 305 306 308 311 354 24 297 262 263 264 275 287 290 281 272 266 268 263 252 248
75 73 74 72 67 60 52 44 37 32 30 32 30 23 32 26 24 347 318 289 21 254 269 296 308 316 318 345 348 321 308 303 301 304 288 282 279 275 270 266 261 255 250
77 74 72 71 68 64 57 47 37 31 24 18 8 350 348 8 317 269 244 214 218 207 216 230 251 278 251 254 281 282 275 274 280 288 279 279 278 277 278 277 274 269 261
Height
1496 1500 1503 1506 1510 1514 1518 1522 1526 1531 1535 1538 1541 1544 1547 1550 1552 1553 1554 1555 1556 1557 1558 1559 1559 1559 1560 1560 1560 1561 1562 1563 1563 1563 1563 1564 1565 1565 1566 1567 1567 1568 1568
1495 1498 1501 1505 1508 1512 1515 1520 1525 1529 1533 1537 1540 1544 1547 1549 1551 1552 1553 1555 1556 1556 1558 1558 1559 1559 1559 1560 1560 1561 1561 1563 1563 1563 1563 1564 1566 1565 1566 1566 1567 1567 1568
1493 1497 1500 1504 1507 1511 1515 1519 1524 1528 1532 1536 1539 1543 1546 1548 1550 1552 1553 1554 1555 1556 1557 1557 1558 1559 1559 1559 1560 1560 1561 1562 1563 1563 1563 1563 1564 1565 1566 1566 1567 1567 1567
1490 1494 1498 1502 1505 1509 1513 1518 1522 1526 1530 1534 1538 1541 1543 1546 1549 1550 1551 1553 1554 1555 1556 1557 1557 1558 1559 1559 1560 1560 1561 1561 1562 1563 1563 1564 1564 1565 1566 1567 1566 1566 1567
1488 1492 1496 1500 1504 1508 1512 1516 1521 1524 1528 1533 1536 1539 1543 1545 1547 1549 1550 1551 1552 1554 1555 1556 1556 1557 1558 1558 1558 1559 1559 1561 1561 1562 1563 1564 1564 1565 1565 1566 1566 1566 1566
1486 1491 1495 1499 1503 1507 1511 1515 1519 1523 1527 1531 1534 1538 1541 1544 1546 1547 1548 1550 1551 1552 1553 1554 1555 1556 1557 1557 1557 1558 1559 1559 1560 1561 1562 1563 1564 1564 1564 1565 1565 1565 1565
1484 1489 1493 1497 1501 1505 1509 1513 1517 1520 1524 1528 1532 1536 1539 1542 1544 1546 1547 1548 1550 1550 1552 1553 1553 1555 1555 1556 1556 1557 1558 1559 1559 1560 1561 1562 1562 1563 1563 1564 1564 1564 1564
1482 1487 1491 1495 1499 1504 1508 1511 1514 1518 1522 1526 1530 1534 1537 1539 1542 1544 1546 1547 1549 1549 1550 1551 1552 1553 1554 1555 1555 1556 1557 1557 1558 1559 1560 1560 1561 1562 1562 1563 1563 1563 1563
1479 1485 1489 1494 1498 1502 1505 1509 1512 1516 1520 1524 1528 1531 1534 1537 1540 1542 1544 1546 1547 1548 1548 1550 1550 1551 1552 1553 1554 1555 1556 1556 1557 1558 1558 1559 1560 1560 1561 1561 1562 1562 1562
1477 1482 1487 1491 1495 1500 1503 1507 1510 1514 1517 1521 1525 1528 1531 1535 1537 1539 1541 1543 1545 1546 1547 1548 1549 1550 1550 1551 1552 1553 1554 1555 1555 1556 1556 1557 1557 1558 1559 1559 1560 1560 1560
1474 1479 1484 1489 1493 1498 1501 1504 1508 1511 1515 1518 1522 1526 1528 1531 1534 1536 1538 1540 1542 1543 1544 1545 1546 1547 1548 1549 1550 1550 1552 1553 1553 1554 1554 1555 1555 1556 1556 1557 1557 1557 1558
1471 1476 1481 1486 1491 1495 1498 1502 1505 1508 1512 1515 1519 1522 1525 1527 1530 1532 1534 1536 1538 1539 1541 1542 1543 1545 1546 1546 1547 1548 1549 1550 1551 1551 1552 1552 1553 1553 1553 1554 1554 1554 1554
1469 1473 1478 1483 1487 1491 1495 1499 1502 1505 1509 1512 1515 1518 1521 1523 1525 1528 1530 1532 1534 1536 1537 1539 1540 1541 1543 1543 1544 1545 1546 1547 1548 1549 1549 1550 1550 1550 1550 1550 1550 1550 1551
1468 1471 1476 1480 1484 1488 1492 1496 1499 1502 1506 1509 1512 1514 1517 1519 1522 1524 1526 1528 1530 1532 1533 1535 1536 1538 1539 1540 1541 1542 1543 1544 1545 1545 1546 1546 1546 1546 1546 1546 1546 1546 1546
1467 1470 1474 1477 1481 1485 1489 1493 1496 1499 1502 1505 1507 1510 1512 1515 1518 1520 1522 1524 1526 1528 1529 1531 1532 1534 1535 1536 1537 1538 1539 1540 1541 1541 1542 1542 1542 1542 1542 1542 1542 1542 1542
1466 1468 1471 1474 1478 1481 1485 1489 1492 1495 1498 1501 1503 1506 1509 1511 1513 1516 1518 1519 1521 1523 1525 1526 1528 1529 1531 1532 1533 1534 1535 1536 1536 1537 1537 1537 1537 1537 1537 1537 1537 1537 1536
1466 1467 1470 1472 1474 1477 1481 1484 1488 1491 1494 1496 1499 1502 1504 1506 1509 1511 1513 1515 1517 1519 1520 1522 1524 1525 1526 1528 1529 1530 1531 1531 1532 1532 1532 1532 1532 1533 1532 1531 1531 1531 1530
1467 1468 1470 1471 1473 1476 1478 1481 1484 1486 1488 1491 1494 1497 1500 1502 1505 1507 1509 1511 1513 1514 1516 1518 1519 1521 1522 1523 1524 1525 1526 1526 1526 1526 1526 1526 1526 1527 1527 1526 1525 1524 1523
1469 1470 1470 1470 1472 1474 1476 1479 1482 1484 1486 1488 1490 1493 1496 1498 1501 1503 1504 1506 1509 1510 1511 1513 1515 1516 1517 1518 1519 1520 1520 1520 1519 1520 1520 1520 1520 1520 1520 1519 1518 1517 1516
1471 1471 1470 1470 1471 1472 1475 1477 1480 1483 1484 1486 1488 1490 1492 1494 1496 1498 1500 1501 1504 1505 1508 1509 1510 1511 1512 1513 1514 1514 1514 1513 1513 1513 1514 1514 1513 1513 1513 1512 1510 1509 1508
1473 1473 1472 1472 1473 1473 1474 1477 1480 1482 1484 1486 1487 1488 1489 1491 1494 1495 1497 1498 1500 1502 1503 1504 1505 1506 1507 1507 1508 1508 1508 1508 1507 1507 1507 1507 1507 1506 1505 1504 1503 1501 1501
1476 1476 1475 1475 1476 1476 1476 1478 1480 1482 1483 1485 1486 1487 1488 1490 1491 1493 1494 1496 1497 1498 1499 1501 1501 1502 1502 1502 1502 1502 1502 1502 1502 1501 1501 1501 1500 1499 1497 1496 1495 1494 1493
1479 1479 1479 1479 1480 1480 1480 1481 1483 1484 1485 1485 1486 1487 1487 1489 1490 1491 1491 1492 1494 1495 1496 1497 1497 1497 1497 1497 1497 1497 1497 1496 1496 1495 1494 1493 1492 1490 1488 1487 1486 1485 1483
1483 1483 1484 1484 1484 1484 1485 1485 1486 1486 1486 1486 1487 1487 1488 1489 1490 1490 1490 1491 1492 1492 1493 1493 1493 1494 1494 1493 1492 1491 1491 1491 1490 1488 1487 1485 1484 1482 1479 1477 1476 1474 1473
1487 1487 1487 1487 1488 1488 1488 1488 1488 1488 1488 1488 1488 1489 1489 1489 1489 1489 1490 1490 1490 1491 1490 1490 1490 1490 1489 1489 1488 1487 1486 1484 1483 1481 1479 1477 1475 1473 1470 1469 1467 1466 1464
1490 1490 1491 1491 1492 1492 1491 1491 1491 1490 1490 1490 1490 1491 1491 1490 1490 1489 1489 1488 1488 1488 1488 1487 1487 1486 1486 1484 1483 1482 1480 1479 1477 1475 1472 1469 1467 1465 1463 1461 1459 1457 1456